Location: Dumpton Point
(51.3500°N, 1.4433°E)
Time: 05:41:03
(UTC+00:00)

Altair - Pass Details

Date: 30 September 2022
Orbit: 1501 x 1682 km, 47.2° (Epoch: 26 November)

Event Time Altitude Azimuth Distance (km) Brightness Sun altitude
Rises 09:53:52 0° 277° (W) 4,886 9.8 30.9°
Reaches altitude 10° 09:57:01 10° 274° (W) 3,915 9.4 31.2°
Maximum altitude 10:06:54 63° 197° (SSW) 1,844 8.8 31.9°
Drops below altitude 10° 10:16:50 10° 120° (ESE) 3,934 10.6 32.7°
Sets 10:20:01 0° 117° (ESE) 4,911 10.8 32.9°
